sat.trackr.live / text

‹ back to catalog

STARLINK-4571

NORAD 53688 · 2022-105AS

PAYLOAD ACTIVE UNKNOWN

§ Identity

Operator
Country
US
Launch date
2022-08-31
Launch site
AFWTR
Launch vehicle
Mass (kg)
RCS (m²)

Purposes: comms

External: N2YO · Heavens-Above · Gunter

§ Orbital elements

Epoch: 2026-05-25T03:04:57.343008Z

Period
95.65 min
Inclination
97.4516°
Eccentricity
0.0002777
Mean motion
15.05489777 rev/d
Perigee alt
548.1 km
Apogee alt
551.9 km
Semi-major
6,928.1 km
B*
2.1758e-3
RAAN
25.0576°
Arg perigee
96.7643°
Mean anomaly
263.3900°
Rev number
20,473

§ Raw data

STARLINK-45711 53688U 22105AS  26145.12844147  .00031340  00000+0  21758-2 0  99942 53688  97.4516  25.0576 0002777  96.7643 263.3900 15.05489777204739

JSON: /api/v1/satellites/53688 · /tle

For live sub-satellite position, see the globe view (requires WebGL).

§ Visibility from observer

Set your observer location to see the next 7 days of passes ≥ 10°. The values pass through the URL so the page stays shareable.

No JS? Fill the form by hand. The geolocation button needs JavaScript.